Change the Weather History Date:

Thursday, May 3, 2012

  Actual Average Record
Temperature  
Mean Temperature 53 °F 53 °F  
Max Temperature 62 °F 68 °F 90 °F (1992)
Min Temperature 43 °F 38 °F 27 °F (1959)
Degree Days  
Heating Degree Days 12 12  
Month to date heating degree days 48 38  
Since 1 July heating degree days 5116 5136  
Cooling Degree Days 0 0  
Month to date cooling degree days 0 0  
Year to date cooling degree days 1 0  
Growing Degree Days 4 (Base 50)    
Moisture  
Dew Point 41 °F    
Average Humidity 69    
Maximum Humidity 86    
Minimum Humidity 51    
Precipitation  
Precipitation 0.06 in 0.07 in 0.57 in (1971)
Month to date precipitation 0.06 0.20  
Year to date precipitation 6.24 8.28  
Sea Level Pressure  
Sea Level Pressure 29.87 in    
Wind  
Wind Speed 11 mph (SSW)    
Max Wind Speed 24 mph    
Max Gust Speed 31 mph    
Visibility 10 miles    
Events Rain    
T = Trace of Precipitation, MM = Missing Value Source: NWS Daily Summary

Daily Weather History Graph

Daily Weather History Graph

Search for Another Location

Airport or City:

Trip Planner

Search our weather history database for the weather conditions in past years. The results will help you decide how hot, cold, wet, or windy it might be!

Date:

Astronomy

May. 03, 2012 Rise Set
Actual Time 6:02 AM PDT 8:11 PM PDT
Civil Twilight 5:32 AM PDT 8:41 PM PDT
Nautical Twilight 4:54 AM PDT 9:19 PM PDT
Astronomical Twilight 4:13 AM PDT 10:00 PM PDT
Moon 5:40 PM PDT (5/3) 4:12 AM PDT (5/3)
Length of Visible Light 15h 09m
Length of Day
14h 08m
Waxing Gibbous, 92% of the Moon is Illuminated
May 3
Waxing Gibbous
May 5
Full
May 12
Last Quarter
May 20
New
May 28
First Quarter

Hourly Weather History & Observations

Time (PDT) Temp. Windchill Dew Point Humidity Pressure Visibility Wind Dir Wind Speed Gust Speed Precip Events Conditions
12:53 AM 50.0 °F - 34.0 °F 54% 29.81 in 10.0 mi WSW 4.6 mph - 0.00 in   Overcast
1:53 AM 50.0 °F - 35.1 °F 57% 29.78 in 10.0 mi SW 5.8 mph - N/A   Overcast
2:53 AM 46.9 °F - 39.9 °F 77% 29.79 in 10.0 mi WSW 5.8 mph - 0.00 in Rain Light Rain
3:53 AM 46.0 °F - 41.0 °F 83% 29.76 in 10.0 mi Calm Calm - 0.01 in Rain Light Rain
4:53 AM 46.9 °F - 42.1 °F 83% 29.74 in 10.0 mi SSW 9.2 mph - 0.00 in Rain Light Rain
5:53 AM 46.0 °F 41.4 °F 42.1 °F 86% 29.76 in 10.0 mi South 9.2 mph - 0.01 in Rain Light Rain
6:53 AM 46.9 °F - 39.9 °F 77% 29.77 in 10.0 mi South 13.8 mph - 0.00 in Rain Light Rain
7:53 AM 48.0 °F - 41.0 °F 77% 29.78 in 10.0 mi SSE 5.8 mph - 0.00 in   Overcast
8:53 AM 51.1 °F - 42.1 °F 71% 29.79 in 10.0 mi SSW 11.5 mph - 0.00 in   Overcast
9:53 AM 51.1 °F - 41.0 °F 68% 29.81 in 10.0 mi SSW 12.7 mph - 0.00 in Rain Light Rain
10:53 AM 55.0 °F - 39.9 °F 57% 29.83 in 10.0 mi South 16.1 mph 20.7 mph 0.00 in   Overcast
12:53 PM 55.0 °F - 41.0 °F 59% 29.85 in 10.0 mi South 20.7 mph 26.5 mph 0.01 in   Overcast
1:53 PM 59.0 °F - 41.0 °F 51% 29.86 in 10.0 mi South 25.3 mph 28.8 mph 0.00 in Rain Light Rain
2:53 PM 60.1 °F - 42.1 °F 51% 29.89 in 10.0 mi South 24.2 mph 29.9 mph 0.00 in   Mostly Cloudy
3:53 PM 61.0 °F - 42.1 °F 50% 29.89 in 10.0 mi South 18.4 mph 26.5 mph N/A   Scattered Clouds
4:53 PM 59.0 °F - 41.0 °F 51% 29.91 in 10.0 mi South 16.1 mph 24.2 mph 0.00 in   Mostly Cloudy
5:53 PM 54.0 °F - 46.0 °F 75% 29.95 in 6.0 mi South 8.1 mph - 0.01 in Rain Light Rain
6:53 PM 53.1 °F - 46.9 °F 80% 29.96 in 10.0 mi South 5.8 mph - 0.01 in   Overcast
7:53 PM 53.1 °F - 46.0 °F 77% 29.97 in 10.0 mi SSW 8.1 mph - 0.00 in   Overcast
8:53 PM 48.9 °F - 41.0 °F 74% 29.99 in 10.0 mi WNW 5.8 mph - 0.00 in   Scattered Clouds
9:53 PM 48.9 °F - 44.1 °F 83% 30.02 in 10.0 mi Calm Calm - 0.00 in   Overcast
10:53 PM 46.9 °F - 39.9 °F 77% 30.01 in 10.0 mi NW 5.8 mph - 0.00 in   Scattered Clouds
11:53 PM 46.9 °F - 39.9 °F 77% 30.03 in 10.0 mi ENE 4.6 mph - N/A   Overcast